{"data":{"norad_id":63379,"epoch":"2026-09-20T03:52:33.123936Z","epoch_age_seconds":188064,"freshness":"STALE","line1":"1 63379U 25063S   26263.16149449  .00109274  00000+0  16135-2 0  9991","line2":"2 63379  53.1528 217.0820 0008859  56.0142 304.1710 15.54495176 84658","mean_motion":15.54495176,"eccentricity":0.0008859,"inclination_deg":53.1528,"raan_deg":217.082,"arg_perigee_deg":56.0142,"mean_anomaly_deg":304.171,"bstar":0.0016135,"rev_number":8465,"period_min":92.634575020386,"perigee_km":397.61252859453,"apogee_km":409.62844651098,"semimajor_km":6781.7574875528,"source":"CELESTRAK","updated_at":"2026-09-21T09:00:34.975383Z"}}